Regional Weather Roundup
Issued by NWS Nashville, TN

Home | Current Version | Previous Version | Text Only | Print | Product List | Glossary On
Versions: 1 2 3 4 5 6 7 8 9 10 11 12 13 14 15 16 17 18 19 20 21 22 23 24 25 26 27
000
ASUS44 KOHX 242110
RWROHX
MIDDLE TENNESSEE HOURLY WEATHER ROUNDUP
NATIONAL WEATHER SERVICE NASHVILLE TN
400 PM CDT MON JUL 24 2017

NOTE: "FAIR" INDICATES FEW OR NO CLOUDS BELOW 12,000 FEET WITH
NO SIGNIFICANT WEATHER AND/OR OBSTRUCTIONS TO VISIBILITY.

* THESE REPORTS ARE NOT UNDER NWS QUALITY CONTROL AND MAY NOT
  REPORT WEATHER SUCH AS PRECIPITATION AND FOG.


TNZ005>011-023>034-057-059-062>066-078-080-242200
...NORTHERN MIDDLE TENNESSEE...

CITY           SKY/WX    TMP DP  RH WIND       PRES   REMARKS
CLARKSVILLE    CLOUDY    88  73  61 SW7       29.94F HX  95
CROSSVILLE     SUNNY     84  66  54 VRB5      30.02F
GALLATIN       MOSUNNY   90  73  58 CALM      29.96F HX  98
DICKSON        MOSUNNY   87  73  62 W6        29.96F HX  94
LEBANON        MOSUNNY   91  69  48 CALM      29.94  HX  95
NASHVILLE      PTSUNNY   93  71  48 CALM      29.94F HX 100
PORTLAND       MOSUNNY   88  72  58 W5        29.95F HX  94
SMYRNA         PTSUNNY   91  74  57 NE9       29.95F HX 100
SPARTA         SUNNY     86  66  51 CALM      29.97F
SPRINGFIELD    SUNNY     88  73  62 SW7       29.94F HX  96
WEST NASHVILLE MOSUNNY   90  73  58 NW8       29.92F HX  98
$$
TNZ056-058-060-061-075>077-079-093>097-242200
...SOUTHERN MIDDLE TENNESSEE...

CITY           SKY/WX    TMP DP  RH WIND       PRES   REMARKS
COLUMBIA       MOSUNNY   90  73  58 CALM      29.93S HX  98
FAYETTEVILLE   SUNNY     88  73  62 CALM      29.96S HX  96
MCMINNVILLE    SUNNY     90  72  55 NW5       29.98S HX  96
MURFREESBORO   MOSUNNY   89  70  53 CALM      29.94F HX  94
PULASKI        MOSUNNY   90  73  58 CALM      29.94S HX  98
SHELBYVILLE    SUNNY     90  72  55 S5        29.96S HX  96
TULLAHOMA      SUNNY     88  68  51 N7        29.99S HX  91
WINCHESTER     SUNNY     91  70  49 CALM      29.98R HX  97
$$


...KEY TO REMARKS...
VSB - VISIBILITY IN MILES
WCI - WIND CHILL INDEX
HX  - HEAT INDEX





USA.gov is the U.S. government's official web portal to all federal, state and local government web resources and services.